Time,TemperatureF,DewpointF,PressureIn,WindDirection,WindDirectionDegrees,WindSpeedMPH,WindSpeedGustMPH,Humidity,HourlyPrecipIn,Conditions,Clouds,dailyrainin,SolarRadiationWatts/m^2,SoftwareType,DateUTC
2013-10-03 00:23:00,74.0,71.0,-100.00,SSE,157,2.0,5.0,89,0.00,,,0.00,0.000000,,2013-10-03 05:23:00,
2013-10-03 00:33:00,74.0,71.0,-100.00,SSE,157,2.0,5.0,89,0.00,,,0.00,0.000000,,2013-10-03 05:33:00,
2013-10-03 00:43:00,74.0,71.0,-100.00,SSE,157,2.0,5.0,89,0.00,,,0.00,0.000000,,2013-10-03 05:43:00,
2013-10-03 00:52:00,74.0,71.0,-100.00,SSE,157,2.0,5.0,89,0.00,,,0.00,0.000000,,2013-10-03 05:52:00,
2013-10-03 01:02:00,74.0,71.0,-100.00,SSE,157,2.0,5.0,89,0.00,,,0.00,0.000000,,2013-10-03 06:02:00,
2013-10-03 01:22:00,73.0,71.0,-100.00,SE,137,3.0,5.0,92,0.00,,,0.00,0.000000,,2013-10-03 06:22:00,
2013-10-03 01:32:00,73.0,71.0,-100.00,SE,137,3.0,5.0,92,0.00,,,0.00,0.000000,,2013-10-03 06:32:00,
2013-10-03 01:42:00,73.0,71.0,-100.00,SE,137,3.0,5.0,92,0.00,,,0.00,0.000000,,2013-10-03 06:42:00,
2013-10-03 01:52:00,73.0,71.0,-100.00,SE,137,3.0,5.0,92,0.00,,,0.00,0.000000,,2013-10-03 06:52:00,
2013-10-03 02:02:00,73.0,71.0,-100.00,SE,137,3.0,5.0,92,0.00,,,0.00,0.000000,,2013-10-03 07:02:00,
2013-10-03 02:03:00,73.0,72.0,-100.00,SSE,151,2.0,5.0,96,0.00,,,0.00,0.000000,,2013-10-03 07:03:00,
2013-10-03 02:22:00,73.0,72.0,-100.00,SSE,151,2.0,5.0,96,0.00,,,0.00,0.000000,,2013-10-03 07:22:00,
2013-10-03 02:32:00,73.0,72.0,-100.00,SSE,151,2.0,5.0,96,0.00,,,0.00,0.000000,,2013-10-03 07:32:00,
2013-10-03 02:42:00,73.0,72.0,-100.00,SSE,151,2.0,5.0,96,0.00,,,0.00,0.000000,,2013-10-03 07:42:00,
2013-10-03 02:52:00,73.0,72.0,-100.00,SSE,151,2.0,5.0,96,0.00,,,0.00,0.000000,,2013-10-03 07:52:00,
2013-10-03 03:22:00,72.0,71.0,-100.00,SSE,150,2.0,4.0,97,0.00,,,0.00,0.000000,,2013-10-03 08:22:00,
2013-10-03 03:32:00,72.0,71.0,-100.00,SSE,150,2.0,4.0,97,0.00,,,0.00,0.000000,,2013-10-03 08:32:00,
2013-10-03 03:42:00,72.0,71.0,-100.00,SSE,150,2.0,4.0,97,0.00,,,0.00,0.000000,,2013-10-03 08:42:00,
2013-10-03 03:52:00,72.0,71.0,-100.00,SSE,150,2.0,4.0,97,0.00,,,0.00,0.000000,,2013-10-03 08:52:00,
2013-10-03 04:02:00,72.0,71.0,-100.00,SSE,150,2.0,4.0,97,0.00,,,0.00,0.000000,,2013-10-03 09:02:00,
2013-10-03 04:03:00,72.0,71.0,-100.00,SE,136,0.0,0.0,98,0.00,,,0.00,0.000000,,2013-10-03 09:03:00,
2013-10-03 04:43:00,72.0,71.0,-100.00,SE,136,0.0,0.0,98,0.00,,,0.00,0.000000,,2013-10-03 09:43:00,
2013-10-03 04:53:00,72.0,71.0,-100.00,SE,136,0.0,0.0,98,0.00,,,0.00,0.000000,,2013-10-03 09:53:00,
2013-10-03 05:03:00,72.0,71.0,-100.00,South,175,0.0,2.0,98,0.00,,,0.00,0.000000,,2013-10-03 10:03:00,
2013-10-03 05:23:00,72.0,71.0,-100.00,South,175,0.0,2.0,98,0.00,,,0.00,0.000000,,2013-10-03 10:23:00,
2013-10-03 05:33:00,72.0,71.0,-100.00,South,175,0.0,2.0,98,0.00,,,0.00,0.000000,,2013-10-03 10:33:00,
2013-10-03 05:43:00,72.0,71.0,-100.00,South,175,0.0,2.0,98,0.00,,,0.00,0.000000,,2013-10-03 10:43:00,
2013-10-03 05:52:00,72.0,71.0,-100.00,South,175,0.0,2.0,98,0.00,,,0.00,0.000000,,2013-10-03 10:52:00,
2013-10-03 06:23:00,73.0,72.0,-100.00,SE,140,0.0,0.0,98,0.00,,,0.00,0.000000,,2013-10-03 11:23:00,
2013-10-03 06:33:00,73.0,72.0,-100.00,SE,140,0.0,0.0,98,0.00,,,0.00,0.000000,,2013-10-03 11:33:00,
2013-10-03 06:42:00,73.0,72.0,-100.00,SE,140,0.0,0.0,98,0.00,,,0.00,0.000000,,2013-10-03 11:42:00,
2013-10-03 06:52:00,73.0,72.0,-100.00,SE,140,0.0,0.0,98,0.00,,,0.00,0.000000,,2013-10-03 11:52:00,
2013-10-03 07:01:00,73.0,72.0,-100.00,SE,140,0.0,0.0,98,0.00,,,0.00,0.000000,,2013-10-03 12:01:00,
2013-10-03 07:22:00,73.0,72.0,-100.00,SE,136,3.0,6.0,98,0.00,,,0.00,0.000000,,2013-10-03 12:22:00,
2013-10-03 07:32:00,73.0,72.0,-100.00,SE,136,3.0,6.0,98,0.00,,,0.00,0.000000,,2013-10-03 12:32:00,
2013-10-03 07:42:00,73.0,72.0,-100.00,SE,136,3.0,6.0,98,0.00,,,0.00,0.000000,,2013-10-03 12:42:00,
2013-10-03 07:52:00,73.0,72.0,-100.00,SE,136,3.0,6.0,98,0.00,,,0.00,0.000000,,2013-10-03 12:52:00,
2013-10-03 08:01:00,73.0,72.0,-100.00,SE,136,3.0,6.0,98,0.00,,,0.00,0.000000,,2013-10-03 13:01:00,
2013-10-03 08:42:00,73.0,72.0,-100.00,SSE,148,3.0,5.0,98,0.00,,,0.00,11.000000,,2013-10-03 13:42:00,
2013-10-03 08:52:00,73.0,72.0,-100.00,SSE,148,3.0,5.0,98,0.00,,,0.00,11.000000,,2013-10-03 13:52:00,
2013-10-03 09:02:00,73.0,72.0,-100.00,SSE,148,3.0,5.0,98,0.00,,,0.00,11.000000,,2013-10-03 14:02:00,
2013-10-03 09:42:00,74.0,74.0,-100.00,SE,134,3.0,5.0,99,0.00,,,0.00,79.000000,,2013-10-03 14:42:00,
2013-10-03 09:52:00,74.0,74.0,-100.00,SE,134,3.0,5.0,99,0.00,,,0.00,79.000000,,2013-10-03 14:52:00,
2013-10-03 10:01:00,74.0,74.0,-100.00,SE,134,3.0,5.0,99,0.00,,,0.00,79.000000,,2013-10-03 15:01:00,
2013-10-03 10:03:00,75.0,75.0,-100.00,SE,130,5.0,7.0,99,0.00,,,0.00,159.000000,,2013-10-03 15:03:00,
2013-10-03 10:22:00,75.0,75.0,-100.00,SE,130,5.0,7.0,99,0.00,,,0.00,159.000000,,2013-10-03 15:22:00,
2013-10-03 10:33:00,75.0,75.0,-100.00,SE,130,5.0,7.0,99,0.00,,,0.00,159.000000,,2013-10-03 15:33:00,
2013-10-03 10:43:00,75.0,75.0,-100.00,SE,130,5.0,7.0,99,0.00,,,0.00,159.000000,,2013-10-03 15:43:00,
2013-10-03 10:54:00,75.0,75.0,-100.00,SE,130,5.0,7.0,99,0.00,,,0.00,159.000000,,2013-10-03 15:54:00,
2013-10-03 11:03:00,80.0,75.0,-100.00,SSE,151,4.0,9.0,85,0.00,,,0.00,342.000000,,2013-10-03 16:03:00,
2013-10-03 11:23:00,80.0,75.0,-100.00,SSE,151,4.0,9.0,85,0.00,,,0.00,342.000000,,2013-10-03 16:23:00,
2013-10-03 11:33:00,80.0,75.0,-100.00,SSE,151,4.0,9.0,85,0.00,,,0.00,342.000000,,2013-10-03 16:33:00,
2013-10-03 11:43:00,80.0,75.0,-100.00,SSE,151,4.0,9.0,85,0.00,,,0.00,342.000000,,2013-10-03 16:43:00,
2013-10-03 11:53:00,80.0,75.0,-100.00,SSE,151,4.0,9.0,85,0.00,,,0.00,342.000000,,2013-10-03 16:53:00,
2013-10-03 12:22:00,82.0,74.0,-100.00,SSE,151,5.0,10.0,76,0.00,,,0.00,489.000000,,2013-10-03 17:22:00,
2013-10-03 12:33:00,82.0,74.0,-100.00,SSE,151,5.0,10.0,76,0.00,,,0.00,489.000000,,2013-10-03 17:33:00,
2013-10-03 12:42:00,82.0,74.0,-100.00,SSE,151,5.0,10.0,76,0.00,,,0.00,489.000000,,2013-10-03 17:42:00,
2013-10-03 12:52:00,82.0,74.0,-100.00,SSE,151,5.0,10.0,76,0.00,,,0.00,489.000000,,2013-10-03 17:52:00,
2013-10-03 13:01:00,82.0,74.0,-100.00,SSE,151,5.0,10.0,76,0.00,,,0.00,489.000000,,2013-10-03 18:01:00,
2013-10-03 13:22:00,88.0,76.0,-100.00,South,169,4.0,10.0,67,0.00,,,0.00,893.000000,,2013-10-03 18:22:00,
2013-10-03 13:32:00,88.0,76.0,-100.00,South,169,4.0,10.0,67,0.00,,,0.00,893.000000,,2013-10-03 18:32:00,
2013-10-03 13:42:00,88.0,76.0,-100.00,South,169,4.0,10.0,67,0.00,,,0.00,893.000000,,2013-10-03 18:42:00,
2013-10-03 13:52:00,88.0,76.0,-100.00,South,169,4.0,10.0,67,0.00,,,0.00,893.000000,,2013-10-03 18:52:00,
2013-10-03 14:01:00,88.0,76.0,-100.00,South,169,4.0,10.0,67,0.00,,,0.00,893.000000,,2013-10-03 19:01:00,
2013-10-03 14:22:00,82.0,69.0,-100.00,SW,236,3.0,9.0,66,0.04,,,0.04,337.000000,,2013-10-03 19:22:00,
2013-10-03 14:32:00,82.0,69.0,-100.00,SW,236,3.0,9.0,66,0.04,,,0.04,337.000000,,2013-10-03 19:32:00,
2013-10-03 14:42:00,82.0,69.0,-100.00,SW,236,3.0,9.0,66,0.04,,,0.04,337.000000,,2013-10-03 19:42:00,
2013-10-03 14:52:00,82.0,69.0,-100.00,SW,236,3.0,9.0,66,0.04,,,0.04,337.000000,,2013-10-03 19:52:00,
2013-10-03 15:02:00,82.0,69.0,-100.00,SW,236,3.0,9.0,66,0.04,,,0.04,337.000000,,2013-10-03 20:02:00,
2013-10-03 15:22:00,82.0,78.0,-100.00,SW,217,0.0,10.0,89,0.21,,,0.25,284.000000,,2013-10-03 20:22:00,
2013-10-03 15:32:00,82.0,78.0,-100.00,SW,217,0.0,10.0,89,0.21,,,0.25,284.000000,,2013-10-03 20:32:00,
2013-10-03 15:42:00,82.0,78.0,-100.00,SW,217,0.0,10.0,89,0.21,,,0.25,284.000000,,2013-10-03 20:42:00,
2013-10-03 15:52:00,82.0,78.0,-100.00,SW,217,0.0,10.0,89,0.21,,,0.25,284.000000,,2013-10-03 20:52:00,
2013-10-03 16:02:00,82.0,78.0,-100.00,SW,217,0.0,10.0,89,0.21,,,0.25,284.000000,,2013-10-03 21:02:00,
2013-10-03 16:03:00,87.0,76.0,-100.00,SE,140,5.0,8.0,70,0.00,,,0.25,431.000000,,2013-10-03 21:03:00,
2013-10-03 16:43:00,87.0,76.0,-100.00,SE,140,5.0,8.0,70,0.00,,,0.25,431.000000,,2013-10-03 21:43:00,
2013-10-03 16:54:00,87.0,76.0,-100.00,SE,140,5.0,8.0,70,0.00,,,0.25,431.000000,,2013-10-03 21:54:00,
2013-10-03 17:03:00,88.0,73.0,-100.00,SSE,156,3.0,8.0,62,0.00,,,0.25,415.000000,,2013-10-03 22:03:00,
2013-10-03 17:23:00,88.0,73.0,-100.00,SSE,156,3.0,8.0,62,0.00,,,0.25,415.000000,,2013-10-03 22:23:00,
2013-10-03 17:33:00,88.0,73.0,-100.00,SSE,156,3.0,8.0,62,0.00,,,0.25,415.000000,,2013-10-03 22:33:00,
2013-10-03 17:43:00,88.0,73.0,-100.00,SSE,156,3.0,8.0,62,0.00,,,0.25,415.000000,,2013-10-03 22:43:00,
2013-10-03 17:54:00,88.0,73.0,-100.00,SSE,156,3.0,8.0,62,0.00,,,0.25,415.000000,,2013-10-03 22:54:00,
2013-10-03 18:43:00,78.0,73.0,-100.00,SSE,164,1.0,19.0,86,0.05,,,0.30,119.000000,,2013-10-03 23:43:00,
2013-10-03 18:52:00,78.0,73.0,-100.00,SSE,164,1.0,19.0,86,0.05,,,0.30,119.000000,,2013-10-03 23:52:00,
2013-10-03 19:02:00,78.0,73.0,-100.00,SSE,164,1.0,19.0,86,0.05,,,0.30,119.000000,,2013-10-04 00:02:00,
2013-10-03 19:22:00,77.0,74.0,-100.00,SSW,207,0.0,0.0,92,0.00,,,0.30,52.000000,,2013-10-04 00:22:00,
2013-10-03 19:32:00,77.0,74.0,-100.00,SSW,207,0.0,0.0,92,0.00,,,0.30,52.000000,,2013-10-04 00:32:00,
2013-10-03 19:42:00,77.0,74.0,-100.00,SSW,207,0.0,0.0,92,0.00,,,0.30,52.000000,,2013-10-04 00:42:00,
2013-10-03 19:52:00,77.0,74.0,-100.00,SSW,207,0.0,0.0,92,0.00,,,0.30,52.000000,,2013-10-04 00:52:00,
2013-10-03 20:02:00,77.0,74.0,-100.00,SSW,207,0.0,0.0,92,0.00,,,0.30,52.000000,,2013-10-04 01:02:00,
2013-10-03 20:22:00,76.0,75.0,-100.00,SSE,153,0.0,4.0,97,0.00,,,0.30,0.000000,,2013-10-04 01:22:00,
2013-10-03 20:32:00,76.0,75.0,-100.00,SSE,153,0.0,4.0,97,0.00,,,0.30,0.000000,,2013-10-04 01:32:00,
2013-10-03 20:42:00,76.0,75.0,-100.00,SSE,153,0.0,4.0,97,0.00,,,0.30,0.000000,,2013-10-04 01:42:00,
2013-10-03 20:52:00,76.0,75.0,-100.00,SSE,153,0.0,4.0,97,0.00,,,0.30,0.000000,,2013-10-04 01:52:00,
2013-10-03 21:02:00,76.0,75.0,-100.00,SSE,153,0.0,4.0,97,0.00,,,0.30,0.000000,,2013-10-04 02:02:00,
2013-10-03 21:22:00,76.0,74.0,-100.00,South,189,0.0,0.0,93,0.00,,,0.30,0.000000,,2013-10-04 02:22:00,
2013-10-03 21:33:00,76.0,74.0,-100.00,South,189,0.0,0.0,93,0.00,,,0.30,0.000000,,2013-10-04 02:33:00,
2013-10-03 21:43:00,76.0,74.0,-100.00,South,189,0.0,0.0,93,0.00,,,0.30,0.000000,,2013-10-04 02:43:00,
2013-10-03 21:52:00,76.0,74.0,-100.00,South,189,0.0,0.0,93,0.00,,,0.30,0.000000,,2013-10-04 02:52:00,
2013-10-03 22:02:00,76.0,74.0,-100.00,South,189,0.0,0.0,93,0.00,,,0.30,0.000000,,2013-10-04 03:02:00,
2013-10-03 22:22:00,75.0,73.0,-100.00,South,170,0.0,0.0,94,0.00,,,0.30,0.000000,,2013-10-04 03:22:00,
2013-10-03 22:34:00,75.0,73.0,-100.00,South,170,0.0,0.0,94,0.00,,,0.30,0.000000,,2013-10-04 03:34:00,
2013-10-03 22:44:00,75.0,73.0,-100.00,South,170,0.0,0.0,94,0.00,,,0.30,0.000000,,2013-10-04 03:44:00,
2013-10-03 23:00:00,75.0,73.0,-100.00,South,170,0.0,0.0,94,0.00,,,0.30,0.000000,,2013-10-04 04:00:00,
2013-10-03 23:03:00,74.0,72.0,-100.00,SSE,166,1.0,1.0,93,0.00,,,-99.99,0.000000,,2013-10-04 04:03:00,
2013-10-03 23:42:00,74.0,72.0,-100.00,SSE,166,1.0,1.0,93,0.00,,,-99.99,0.000000,,2013-10-04 04:42:00,
2013-10-03 23:51:00,74.0,72.0,-100.00,SSE,166,1.0,1.0,93,0.00,,,-99.99,0.000000,,2013-10-04 04:51:00,